"startDT [UTC]","vpos","CH4 [ppm]","stdev(CH4) [ppm]","CO2 [ppm]","stdev(CO2) [ppm]","H2O_reported [%]","stdev(H2O_reported)","CavityPressure [torr]","CavityTemp [C]","OutletValve","CH4_dry [ppm]","CO2_dry [ppm]","DasTemp [C]","EtalonTemp [C]","WarmBoxTemp [C]","MPVPosition","T_ECpre [C]","T_EC1 [C]","T_EC2 [C]","p_inlet [hPa]","p_in [hPa]","p_out [hPa]","T_inlet [C]","RH_inlet [%]","dwpt_inlet [C]","T_vent [C]","RH_vent [%]","dwpt_vent [C]","flow_vent [l min-1]","flow_inlet [l min-1]","dwpt_sample [C]","T_room [C]"
2015-11-27 00:00:00,0.0,1.91981,0.00041,402.165,0.028,0.1370,0.0019,139.999,45.000,31616.92340,1.92237,402.829,33.498,45.070,45.000,0.00,0.09,-272.75,-272.81,-5,520,-944,19.2,4.7,-22.0,19.4,4.8,-21.7,5.73,1.84,-15.3,25.8
2015-11-27 00:01:00,0.0,1.92034,0.00042,402.177,0.034,0.1376,0.0015,139.999,45.000,31614.17767,1.92295,402.845,33.499,45.069,45.000,0.00,0.09,-272.75,-272.80,-6,520,-944,19.2,4.7,-22.0,19.4,4.8,-21.7,5.73,1.90,-15.2,25.8
2015-11-27 00:02:00,0.0,1.91992,0.00029,402.168,0.024,0.1372,0.0021,139.999,45.000,31614.83620,1.92255,402.832,33.489,45.070,45.000,0.00,0.08,-272.75,-272.80,-6,520,-944,19.2,4.7,-22.0,19.4,4.8,-21.7,5.73,2.11,-15.3,25.8
2015-11-27 00:03:00,0.0,1.91974,0.00047,402.109,0.031,0.1374,0.0018,139.998,45.000,31616.54714,1.92233,402.778,33.473,45.070,45.000,0.00,0.29,-271.18,-272.44,-6,520,-944,19.2,4.7,-22.0,19.4,4.8,-21.7,5.43,2.13,-20.5,25.8
2015-11-27 00:04:00,0.0,1.91978,0.00039,402.116,0.034,0.1362,0.0018,140.000,45.000,31614.44110,1.92236,402.777,33.477,45.070,45.000,0.00,0.08,-272.74,-272.80,-6,520,-944,19.2,4.7,-22.0,19.4,4.8,-21.8,5.73,1.89,-15.3,25.8
2015-11-27 00:05:00,0.0,1.91968,0.00034,402.072,0.065,0.1373,0.0028,139.997,45.000,31612.14313,1.92228,402.737,33.449,45.070,45.000,0.00,0.08,-272.74,-272.80,-5,520,-944,19.2,4.8,-22.0,19.4,4.8,-21.7,5.73,1.85,-15.3,25.8
2015-11-27 00:06:00,0.0,1.91988,0.00034,402.118,0.029,0.1370,0.0016,140.001,45.000,31615.99323,1.92249,402.782,33.438,45.070,45.000,0.00,0.08,-272.76,-272.81,-5,520,-944,19.2,4.7,-22.0,19.4,4.8,-21.7,5.73,2.06,-15.3,25.8
2015-11-27 00:07:00,0.0,1.91987,0.00036,402.168,0.025,0.1360,0.0017,139.996,45.000,31614.12200,1.92242,402.828,33.437,45.070,45.000,0.00,0.08,-272.75,-272.81,-6,520,-944,19.2,4.7,-22.0,19.4,4.8,-21.7,5.73,2.14,-15.3,25.8
2015-11-27 00:08:00,0.0,1.92013,0.00033,402.203,0.039,0.1356,0.0016,139.999,45.000,31614.76859,1.92270,402.860,33.426,45.070,45.000,0.00,0.09,-272.74,-272.80,-6,520,-944,19.2,4.7,-22.1,19.4,4.8,-21.8,5.73,1.96,-15.3,25.8
2015-11-27 00:09:00,0.0,1.92018,0.00037,402.200,0.029,0.1378,0.0024,140.000,45.000,31616.85552,1.92280,402.868,33.436,45.070,45.000,0.00,0.09,-272.75,-272.81,-6,520,-944,19.1,4.8,-22.0,19.4,4.8,-21.8,5.73,1.82,-15.3,25.8
2015-11-27 00:10:00,0.0,1.92039,0.00033,402.195,0.027,0.1363,0.0015,139.997,45.000,31615.47393,1.92295,402.856,33.438,45.070,45.000,0.00,0.09,-272.75,-272.81,-5,520,-944,19.1,4.7,-22.0,19.4,4.8,-21.7,5.73,1.98,-15.3,25.8
2015-11-27 00:11:00,0.0,1.92026,0.00043,402.226,0.036,0.1366,0.0021,139.998,45.000,31615.76971,1.92287,402.888,33.444,45.070,45.000,0.00,0.09,-272.75,-272.80,-5,520,-944,19.1,4.7,-22.0,19.4,4.8,-21.7,5.73,2.15,-15.4,25.8
2015-11-27 00:12:00,0.0,1.92012,0.00035,402.188,0.031,0.1374,0.0020,140.000,45.000,31620.04940,1.92271,402.854,33.451,45.070,45.000,0.00,0.09,-272.75,-272.80,-5,520,-944,19.1,4.8,-22.0,19.4,4.8,-21.7,5.73,2.03,-15.3,25.8
2015-11-27 00:13:00,0.0,1.92038,0.00037,402.185,0.020,0.1383,0.0019,139.999,45.000,31619.99810,1.92299,402.855,33.463,45.070,45.000,0.00,0.09,-272.76,-272.81,-6,520,-944,19.1,4.8,-21.9,19.4,4.8,-21.7,5.73,1.85,-15.3,25.8
2015-11-27 00:14:00,0.0,1.92022,0.00044,402.192,0.031,0.1380,0.0022,139.995,45.000,31615.60180,1.92286,402.861,33.441,45.070,45.000,0.00,0.09,-272.75,-272.80,-6,520,-944,19.1,4.8,-21.9,19.4,4.8,-21.6,5.73,1.90,-15.4,25.8
2015-11-27 00:15:00,0.0,1.92012,0.00043,402.181,0.025,0.1370,0.0021,139.999,45.000,31617.06281,1.92269,402.845,33.440,45.070,45.000,0.00,0.09,-272.75,-272.80,-6,520,-944,19.1,4.8,-21.9,19.4,4.8,-21.7,5.73,2.11,-15.4,25.8
2015-11-27 00:16:00,0.0,1.92028,0.00041,402.194,0.031,0.1373,0.0018,139.997,45.000,31617.22398,1.92288,402.860,33.436,45.070,45.000,0.00,0.08,-272.75,-272.81,-5,520,-944,19.1,4.8,-22.0,19.4,4.8,-21.7,5.73,2.10,-15.3,25.8
2015-11-27 00:17:00,0.0,1.92014,0.00042,402.218,0.021,0.1375,0.0024,139.998,45.000,31619.34146,1.92276,402.885,33.425,45.070,45.000,0.00,0.08,-272.75,-272.81,-5,520,-944,19.1,4.8,-21.9,19.4,4.8,-21.7,5.73,1.89,-15.4,25.8
2015-11-27 00:18:00,0.0,1.92045,0.00049,402.215,0.035,0.1363,0.0020,140.000,45.000,31619.20594,1.92305,402.876,33.438,45.070,45.000,0.00,0.09,-272.74,-272.80,-5,520,-944,19.1,4.7,-22.0,19.4,4.8,-21.7,5.73,1.85,-15.3,25.8
2015-11-27 00:19:00,0.0,1.92061,0.00057,402.216,0.034,0.1366,0.0018,139.998,45.000,31616.54398,1.92320,402.879,33.447,45.070,45.000,0.00,0.08,-272.75,-272.80,-6,520,-944,19.1,4.8,-22.0,19.4,4.8,-21.7,5.73,2.05,-15.4,25.8
2015-11-27 00:20:00,0.0,1.92049,0.00036,402.206,0.029,0.1359,0.0013,139.998,45.000,31617.92559,1.92306,402.865,33.454,45.070,45.000,0.00,0.08,-272.76,-272.81,-6,520,-944,19.1,4.7,-22.0,19.4,4.8,-21.7,5.73,2.14,-15.3,25.8
2015-11-27 00:21:00,0.0,1.92009,0.00051,402.157,0.057,0.1357,0.0019,140.001,45.000,31616.03683,1.92268,402.817,33.445,45.070,45.000,0.00,0.09,-272.74,-272.80,-6,520,-944,19.1,4.7,-22.0,19.4,4.8,-21.8,5.73,1.98,-15.3,25.8
2015-11-27 00:22:00,0.0,1.91973,0.00040,402.078,0.040,0.1373,0.0016,139.998,45.000,31611.47511,1.92231,402.742,33.441,45.070,45.000,0.00,0.09,-272.75,-272.80,-5,520,-944,19.1,4.8,-22.0,19.4,4.8,-21.7,5.73,1.83,-15.4,25.8
2015-11-27 00:23:00,0.0,1.91986,0.00025,402.103,0.035,0.1363,0.0019,139.997,45.000,31614.64722,1.92247,402.765,33.466,45.070,45.000,0.00,0.09,-272.75,-272.81,-5,520,-944,19.1,4.7,-22.0,19.4,4.8,-21.7,5.73,1.98,-15.3,25.8
2015-11-27 00:24:00,0.0,1.91985,0.00026,402.130,0.026,0.1355,0.0012,139.999,45.000,31617.00000,1.92241,402.787,33.470,45.070,45.000,0.00,0.09,-272.75,-272.80,-6,520,-944,19.1,4.7,-22.0,19.4,4.8,-21.8,5.73,2.14,-15.4,25.8
2015-11-27 00:25:00,0.0,1.91992,0.00049,402.178,0.036,0.1356,0.0020,139.997,45.000,31615.57652,1.92245,402.833,33.488,45.070,45.000,0.00,0.09,-272.74,-272.80,-6,520,-944,19.1,4.7,-22.1,19.4,4.8,-21.8,5.73,2.04,-15.3,25.8
2015-11-27 00:26:00,0.0,1.92008,0.00033,402.165,0.045,0.1365,0.0024,140.002,45.000,31617.37421,1.92270,402.829,33.480,45.070,45.000,0.00,0.09,-272.75,-272.81,-6,520,-944,19.1,4.7,-22.1,19.4,4.7,-21.8,5.73,1.85,-15.4,25.8
2015-11-27 00:27:00,0.0,1.92011,0.00033,402.176,0.034,0.1372,0.0019,140.000,45.000,31618.66315,1.92271,402.842,33.444,45.069,45.000,0.00,0.08,-272.75,-272.80,-6,520,-944,19.1,4.8,-21.9,19.4,4.8,-21.7,5.73,1.90,-15.4,25.8
2015-11-27 00:28:00,0.0,1.92004,0.00039,402.184,0.037,0.1360,0.0019,140.001,45.000,31615.61129,1.92260,402.844,33.437,45.070,45.000,0.00,0.08,-272.75,-272.79,-5,520,-944,19.1,4.7,-22.0,19.4,4.8,-21.7,5.73,2.11,-15.4,25.8
2015-11-27 00:29:00,0.0,1.92032,0.00032,402.180,0.026,0.1361,0.0016,140.000,45.000,31613.99341,1.92290,402.839,33.437,45.070,45.000,0.00,0.08,-272.76,-272.81,-5,520,-944,19.1,4.7,-22.1,19.3,4.7,-21.8,5.73,2.10,-15.3,25.8
2015-11-27 00:30:00,0.0,1.92025,0.00027,402.179,0.038,0.1368,0.0015,139.997,45.000,31616.07617,1.92285,402.841,33.438,45.070,45.000,0.00,0.08,-272.75,-272.81,-6,520,-944,19.1,4.7,-22.0,19.4,4.8,-21.8,5.73,1.89,-15.4,25.8
2015-11-27 00:31:00,0.0,1.91984,0.00035,402.149,0.027,0.1364,0.0019,139.997,45.000,31617.36730,1.92243,402.813,33.439,45.070,45.000,0.00,0.09,-272.74,-272.80,-6,520,-944,19.1,4.8,-22.0,19.4,4.8,-21.7,5.73,1.85,-15.4,25.8
2015-11-27 00:32:00,0.0,1.92022,0.00039,402.183,0.037,0.1355,0.0021,139.999,45.000,31616.96437,1.92278,402.840,33.445,45.070,45.000,0.00,0.09,-272.75,-272.80,-6,520,-944,19.1,4.7,-22.1,19.4,4.8,-21.8,5.73,2.05,-15.4,25.8
2015-11-27 00:33:00,0.0,1.92008,0.00022,402.169,0.030,0.1353,0.0018,139.997,45.000,31616.34907,1.92265,402.824,33.443,45.070,45.000,0.00,0.08,-272.75,-272.81,-5,520,-944,19.1,4.7,-22.1,19.4,4.7,-21.9,5.73,2.14,-15.4,25.8
2015-11-27 00:34:00,0.0,1.92031,0.00028,402.147,0.025,0.1376,0.0021,139.999,45.000,31617.00212,1.92290,402.814,33.444,45.070,45.000,0.00,0.08,-272.75,-272.81,-5,520,-944,19.1,4.8,-21.9,19.3,4.8,-21.8,5.73,1.96,-15.4,25.8
2015-11-27 00:35:00,0.0,1.92042,0.00057,402.153,0.029,0.1376,0.0024,140.000,45.000,31616.58099,1.92302,402.821,33.439,45.070,45.000,0.00,0.09,-272.74,-272.80,-5,520,-944,19.1,4.8,-21.9,19.4,4.8,-21.7,5.73,1.83,-15.4,25.8
2015-11-27 00:36:00,0.0,1.92039,0.00031,402.162,0.024,0.1372,0.0019,140.000,45.000,31615.76683,1.92301,402.826,33.438,45.070,45.000,0.00,0.09,-272.75,-272.80,-6,520,-944,19.1,4.8,-21.9,19.3,4.8,-21.7,5.73,1.98,-15.4,25.8
2015-11-27 00:37:00,0.0,1.92011,0.00039,402.126,0.030,0.1378,0.0020,140.000,45.000,31616.26879,1.92272,402.795,33.437,45.070,45.000,0.00,0.08,-272.76,-272.81,-6,520,-944,19.1,4.8,-21.9,19.3,4.8,-21.7,5.73,2.14,-15.4,25.8
2015-11-27 00:38:00,0.0,1.92021,0.00042,402.168,0.030,0.1372,0.0019,140.002,45.000,31617.62980,1.92280,402.833,33.437,45.070,45.000,0.00,0.09,-272.75,-272.81,-6,520,-944,19.1,4.8,-21.9,19.3,4.8,-21.7,5.73,2.03,-15.4,25.8
2015-11-27 00:39:00,0.0,1.92004,0.00037,402.154,0.022,0.1357,0.0016,139.997,45.000,31617.79549,1.92261,402.812,33.437,45.070,45.000,0.00,0.09,-272.75,-272.81,-5,520,-944,19.1,4.7,-22.0,19.3,4.8,-21.7,5.73,1.84,-15.4,25.8
2015-11-27 00:40:00,0.0,1.92022,0.00038,402.146,0.031,0.1371,0.0025,139.997,45.000,31617.77313,1.92283,402.809,33.439,45.070,45.000,0.00,0.09,-272.75,-272.81,-5,520,-944,19.1,4.8,-22.0,19.4,4.8,-21.7,5.73,1.91,-15.4,25.8
2015-11-27 00:41:00,0.0,1.92010,0.00036,402.184,0.035,0.1377,0.0015,139.998,45.000,31617.34485,1.92267,402.851,33.438,45.070,45.000,0.00,0.09,-272.75,-272.80,-5,520,-944,19.1,4.8,-21.9,19.3,4.8,-21.7,5.73,2.12,-15.4,25.8
2015-11-27 00:42:00,0.0,1.92058,0.00039,402.204,0.029,0.1370,0.0020,139.999,45.000,31615.05024,1.92317,402.870,33.418,45.070,45.000,0.00,0.08,-272.75,-272.80,-6,520,-944,19.1,4.8,-21.9,19.3,4.8,-21.7,5.73,2.10,-15.3,25.8
2015-11-27 00:43:00,0.0,1.92049,0.00030,402.181,0.025,0.1370,0.0019,140.000,45.000,31618.96727,1.92310,402.845,33.436,45.070,45.000,0.00,0.08,-272.75,-272.80,-6,520,-944,19.1,4.8,-21.9,19.4,4.8,-21.7,5.73,1.88,-15.4,25.8
2015-11-27 00:44:00,0.0,1.92040,0.00029,402.181,0.036,0.1377,0.0018,139.997,45.000,31617.41313,1.92301,402.848,33.438,45.070,45.000,0.00,0.09,-272.75,-272.80,-6,520,-944,19.1,4.8,-21.9,19.3,4.8,-21.7,5.73,1.86,-15.4,25.8
2015-11-27 00:45:00,0.0,1.92034,0.00036,402.199,0.035,0.1372,0.0018,140.000,45.000,31618.15089,1.92296,402.865,33.437,45.070,45.000,0.00,0.08,-272.75,-272.80,-5,520,-944,19.1,4.8,-22.0,19.3,4.8,-21.7,5.73,2.06,-15.4,25.8
2015-11-27 00:46:00,0.0,1.92060,0.00042,402.224,0.044,0.1384,0.0018,140.000,45.000,31619.82017,1.92321,402.894,33.437,45.070,45.000,0.00,0.08,-272.75,-272.81,-5,520,-944,19.1,4.8,-21.9,19.3,4.8,-21.7,5.73,2.14,-15.4,25.8
2015-11-27 00:47:00,0.0,1.92038,0.00039,402.202,0.030,0.1395,0.0018,139.999,45.000,31619.33492,1.92300,402.878,33.435,45.070,45.000,0.00,0.08,-272.74,-272.81,-5,520,-944,19.1,4.8,-21.9,19.3,4.8,-21.6,5.73,1.95,-15.4,25.8
2015-11-27 00:48:00,0.0,1.92063,0.00034,402.228,0.029,0.1386,0.0015,139.997,45.000,31617.42494,1.92328,402.901,33.434,45.070,45.000,0.00,0.09,-272.74,-272.80,-6,520,-944,19.1,4.8,-21.9,19.4,4.8,-21.6,5.73,1.83,-15.4,25.8
2015-11-27 00:49:00,0.0,1.92070,0.00032,402.221,0.033,0.1377,0.0018,139.999,45.000,31619.25948,1.92331,402.889,33.438,45.070,45.000,0.00,0.09,-272.75,-272.80,-6,520,-944,19.1,4.8,-21.9,19.3,4.8,-21.7,5.73,1.99,-15.4,25.8
2015-11-27 00:50:00,0.0,1.92071,0.00045,402.244,0.035,0.1398,0.0019,139.998,45.000,31619.83713,1.92337,402.922,33.440,45.070,45.000,0.00,0.08,-272.75,-272.81,-6,520,-944,19.1,4.8,-21.8,19.3,4.8,-21.6,5.73,2.15,-15.4,25.8
2015-11-27 00:51:00,0.0,1.92102,0.00042,402.247,0.029,0.1391,0.0019,139.999,45.001,31618.51643,1.92363,402.920,33.444,45.070,45.000,0.00,0.08,-272.75,-272.81,-5,520,-944,19.1,4.9,-21.8,19.3,4.9,-21.6,5.73,2.04,-15.4,25.8
2015-11-27 00:52:00,0.0,1.92079,0.00032,402.250,0.031,0.1391,0.0013,139.998,45.000,31617.45801,1.92343,402.925,33.439,45.070,45.000,0.00,0.09,-272.74,-272.80,-5,520,-944,19.1,4.8,-21.8,19.3,4.9,-21.6,5.73,1.84,-15.4,25.8
2015-11-27 00:53:00,0.0,1.92139,0.00047,402.262,0.037,0.1395,0.0020,139.997,45.000,31616.51357,1.92405,402.939,33.437,45.070,45.000,0.00,0.09,-272.76,-272.81,-5,520,-945,19.1,4.8,-21.8,19.3,4.9,-21.6,5.73,1.91,-15.4,25.8
2015-11-27 00:54:00,0.0,1.92139,0.00042,402.275,0.041,0.1388,0.0016,139.999,45.000,31617.78381,1.92398,402.948,33.437,45.070,45.000,0.00,0.09,-272.76,-272.81,-6,520,-945,19.1,4.8,-21.8,19.3,4.9,-21.6,5.73,2.11,-15.4,25.8
2015-11-27 00:55:00,0.0,1.92140,0.00040,402.258,0.039,0.1402,0.0026,139.998,45.000,31618.53337,1.92404,402.938,33.431,45.070,45.000,0.00,0.09,-272.75,-272.80,-6,520,-945,19.1,4.9,-21.7,19.4,4.9,-21.5,5.73,2.10,-15.4,25.8
2015-11-27 00:56:00,0.0,1.92124,0.00045,402.231,0.023,0.1432,0.0016,139.998,45.000,31617.98724,1.92400,402.926,33.409,45.070,45.000,0.00,0.08,-272.75,-272.81,-5,520,-945,19.1,4.9,-21.6,19.3,4.9,-21.4,5.73,1.90,-15.4,25.8
2015-11-27 00:57:00,0.0,1.92127,0.00041,402.246,0.032,0.1394,0.0015,139.999,45.000,31616.38888,1.92392,402.923,33.398,45.070,45.000,0.00,0.08,-272.75,-272.80,-5,520,-944,19.1,4.9,-21.7,19.3,4.9,-21.4,5.73,1.85,-15.4,25.8
2015-11-27 00:58:00,0.0,1.92096,0.00038,402.255,0.030,0.1384,0.0013,139.999,45.000,31616.85770,1.92358,402.927,33.434,45.070,45.000,0.00,0.09,-272.74,-272.80,-5,520,-944,19.1,4.8,-21.8,19.3,4.9,-21.6,5.73,2.03,-15.4,25.8
2015-11-27 00:59:00,0.0,1.92065,0.00033,402.244,0.036,0.1380,0.0022,139.999,45.000,31615.94783,1.92328,402.913,33.438,45.070,45.000,0.00,0.08,-272.75,-272.81,-6,520,-944,19.1,4.8,-21.9,19.3,4.8,-21.6,5.73,2.15,-15.4,25.8
2015-11-27 01:00:00,0.0,1.92086,0.00029,402.264,0.031,0.1367,0.0018,139.996,45.000,31612.79389,1.92344,402.926,33.447,45.070,45.000,0.00,0.08,-272.75,-272.81,-6,520,-944,19.1,4.8,-22.0,19.3,4.8,-21.7,5.73,1.98,-15.4,25.8
2015-11-27 01:01:00,0.0,1.92071,0.00035,402.244,0.027,0.1367,0.0017,139.998,45.000,31616.47202,1.92329,402.908,33.462,45.070,45.000,0.00,0.09,-272.75,-272.81,-6,520,-945,19.1,4.7,-22.0,19.3,4.8,-21.7,5.73,1.83,-15.4,25.8
2015-11-27 01:02:00,0.0,1.92074,0.00041,402.239,0.031,0.1372,0.0017,139.999,45.000,31615.62067,1.92337,402.904,33.465,45.070,45.000,0.00,0.09,-272.74,-272.80,-6,520,-945,19.1,4.8,-22.0,19.3,4.8,-21.7,5.73,1.95,-15.4,25.8
2015-11-27 01:03:00,0.0,1.92057,0.00025,402.237,0.026,0.1370,0.0016,139.998,45.000,31615.46586,1.92314,402.901,33.494,45.069,45.000,0.00,0.08,-272.75,-272.80,-5,520,-944,19.1,4.8,-22.0,19.3,4.8,-21.7,5.73,2.13,-15.4,25.8
2015-11-27 01:04:00,0.0,1.92082,0.00041,402.234,0.032,0.1368,0.0016,139.998,45.000,31615.03553,1.92340,402.898,33.500,45.069,45.000,0.00,0.08,-272.75,-272.81,-6,520,-945,19.1,4.7,-22.0,19.3,4.8,-21.8,5.73,2.07,-15.4,25.8
2015-11-27 01:05:00,0.0,1.92075,0.00044,402.213,0.038,0.1359,0.0021,139.997,45.000,31614.52342,1.92332,402.872,33.503,45.069,45.000,0.00,0.09,-272.74,-272.80,-6,520,-945,19.1,4.7,-22.1,19.3,4.8,-21.8,5.73,1.86,-15.4,25.8
2015-11-27 01:06:00,0.0,1.92063,0.00038,402.228,0.039,0.1362,0.0019,139.998,45.000,31619.02832,1.92326,402.889,33.501,45.069,45.000,0.00,0.09,-272.75,-272.79,-6,520,-945,19.1,4.7,-22.0,19.3,4.8,-21.8,5.73,1.88,-15.4,25.8
2015-11-27 01:07:00,0.0,1.92085,0.00023,402.228,0.035,0.1358,0.0017,140.000,45.000,31618.09416,1.92339,402.886,33.500,45.069,44.999,0.00,0.09,-272.76,-272.81,-6,520,-945,19.1,4.7,-22.1,19.4,4.8,-21.8,5.73,2.08,-15.4,25.8
2015-11-27 01:08:00,0.0,1.92086,0.00039,402.247,0.040,0.1362,0.0014,139.999,45.000,31618.56120,1.92343,402.906,33.500,45.069,45.000,0.00,0.09,-272.75,-272.80,-6,520,-945,19.1,4.7,-22.0,19.3,4.8,-21.8,5.73,2.13,-15.4,25.8
2015-11-27 01:09:00,0.0,1.92074,0.00033,402.216,0.031,0.1360,0.0016,139.998,45.000,31619.07139,1.92335,402.875,33.501,45.069,45.000,0.00,0.09,-272.75,-272.81,-5,520,-945,19.1,4.7,-22.1,19.3,4.8,-21.8,5.73,1.96,-15.4,25.8
2015-11-27 01:10:00,0.0,1.92099,0.00038,402.215,0.029,0.1357,0.0019,139.999,45.000,31618.13793,1.92352,402.875,33.508,45.070,45.000,0.00,0.08,-272.74,-272.81,-5,520,-945,19.1,4.8,-22.0,19.3,4.8,-21.8,5.73,1.84,-15.4,25.8
2015-11-27 01:11:00,0.0,1.92087,0.00042,402.219,0.036,0.1358,0.0022,140.001,45.000,31618.66055,1.92350,402.878,33.510,45.070,45.000,0.00,0.09,-272.75,-272.80,-6,520,-945,19.1,4.7,-22.0,19.3,4.8,-21.8,5.73,1.97,-15.4,25.8
2015-11-27 01:12:00,0.0,1.92077,0.00036,402.219,0.025,0.1358,0.0016,140.000,45.000,31618.22515,1.92334,402.878,33.555,45.070,45.000,0.00,0.08,-272.74,-272.80,-6,520,-945,19.1,4.7,-22.1,19.3,4.8,-21.8,5.73,2.14,-15.4,25.8
2015-11-27 01:13:00,0.0,1.92073,0.00042,402.213,0.030,0.1360,0.0023,139.999,45.000,31617.56243,1.92329,402.872,33.554,45.070,45.000,0.00,0.08,-272.75,-272.80,-6,520,-945,19.1,4.7,-22.0,19.3,4.8,-21.8,5.73,2.05,-15.4,25.8
2015-11-27 01:14:00,0.0,1.92059,0.00037,402.199,0.035,0.1355,0.0014,139.999,45.000,31618.95935,1.92316,402.857,33.511,45.069,45.000,0.00,0.08,-272.75,-272.81,-6,520,-945,19.1,4.7,-22.1,19.3,4.8,-21.8,5.73,1.86,-15.4,25.8
2015-11-27 01:15:00,0.0,1.92058,0.00028,402.215,0.032,0.1348,0.0016,139.999,45.000,31620.68894,1.92312,402.868,33.500,45.070,45.000,0.00,0.09,-272.75,-272.80,-5,520,-945,19.1,4.7,-22.0,19.4,4.8,-21.8,5.73,1.88,-15.4,25.8
2015-11-27 01:16:00,0.0,1.92089,0.00028,402.210,0.031,0.1361,0.0022,140.000,45.000,31618.83511,1.92344,402.871,33.497,45.070,45.000,0.00,0.09,-272.75,-272.80,-5,520,-945,19.1,4.7,-22.1,19.4,4.7,-21.8,5.73,2.08,-15.5,25.8
2015-11-27 01:17:00,0.0,1.92092,0.00037,402.228,0.030,0.1354,0.0016,139.999,45.000,31618.49847,1.92351,402.883,33.460,45.070,45.000,0.00,0.08,-272.76,-272.81,-6,520,-945,19.1,4.7,-22.1,19.3,4.7,-21.9,5.73,2.13,-15.4,25.8
2015-11-27 01:18:00,0.0,1.92069,0.00041,402.252,0.037,0.1348,0.0018,139.998,45.000,31621.18443,1.92324,402.905,33.442,45.070,45.001,0.00,0.09,-272.74,-272.81,-6,520,-945,19.1,4.7,-22.1,19.4,4.7,-21.8,5.73,1.95,-15.4,25.7
2015-11-27 01:19:00,0.0,1.92088,0.00036,402.266,0.025,0.1358,0.0012,139.995,45.000,31619.78205,1.92346,402.925,33.443,45.070,45.001,0.00,0.09,-272.74,-272.81,-6,520,-945,19.1,4.7,-22.1,19.4,4.7,-21.8,5.73,1.84,-15.4,25.8
2015-11-27 01:20:00,0.0,1.92099,0.00036,402.290,0.036,0.1351,0.0020,139.998,45.000,31619.98657,1.92353,402.944,33.466,45.070,45.001,0.00,0.08,-272.76,-272.81,-6,520,-945,19.1,4.7,-22.1,19.4,4.7,-21.9,5.73,1.98,-15.4,25.8
2015-11-27 01:21:00,0.0,1.92070,0.00031,402.272,0.028,0.1351,0.0015,140.000,45.000,31623.73715,1.92330,402.928,33.486,45.071,45.001,0.00,0.08,-272.76,-272.80,-5,520,-945,19.1,4.7,-22.1,19.4,4.7,-21.8,5.73,2.14,-15.3,25.8
2015-11-27 01:22:00,0.0,1.92083,0.00046,402.259,0.030,0.1348,0.0019,140.001,45.000,31625.58796,1.92335,402.912,33.489,45.070,45.000,0.00,0.08,-272.75,-272.79,-5,520,-945,19.1,4.7,-22.1,19.3,4.7,-21.9,5.73,2.04,-15.5,25.7
2015-11-27 01:23:00,0.0,1.92076,0.00032,402.267,0.042,0.1343,0.0013,139.997,45.000,31625.30270,1.92332,402.920,33.494,45.070,45.000,0.00,0.08,-272.75,-272.81,-5,520,-945,19.1,4.7,-22.2,19.3,4.7,-21.9,5.73,1.86,-15.5,25.7
2015-11-27 01:24:00,0.0,1.92066,0.00023,402.251,0.035,0.1346,0.0017,140.000,45.000,31625.14412,1.92320,402.902,33.491,45.070,45.000,0.00,0.09,-272.76,-272.81,-6,520,-945,19.1,4.7,-22.2,19.4,4.7,-21.9,5.73,1.89,-15.5,25.8
2015-11-27 01:25:00,0.0,1.92082,0.00045,402.291,0.028,0.1344,0.0021,140.000,45.000,31626.44144,1.92337,402.942,33.479,45.070,45.000,0.00,0.09,-272.75,-272.80,-6,520,-945,19.1,4.7,-22.2,19.4,4.7,-21.9,5.73,2.09,-15.3,25.8
2015-11-27 01:26:00,0.0,1.92068,0.00031,402.305,0.035,0.1337,0.0017,139.998,45.000,31626.96225,1.92322,402.954,33.458,45.070,45.000,0.00,0.08,-272.74,-272.81,-5,520,-945,19.1,4.7,-22.2,19.3,4.7,-21.9,5.73,2.13,-15.3,25.8
2015-11-27 01:27:00,0.0,1.92083,0.00040,402.313,0.024,0.1340,0.0013,139.998,45.000,31625.77327,1.92336,402.962,33.457,45.070,45.000,0.00,0.08,-272.75,-272.81,-5,520,-945,19.2,4.7,-22.1,19.3,4.7,-21.9,5.73,1.94,-15.4,25.7
2015-11-27 01:28:00,0.0,1.92120,0.00049,402.311,0.032,0.1348,0.0025,139.996,45.000,31625.72437,1.92375,402.965,33.455,45.070,45.000,0.00,0.08,-272.74,-272.80,-5,520,-945,19.2,4.7,-22.2,19.4,4.7,-21.9,5.73,1.84,-15.3,25.8
2015-11-27 01:29:00,0.0,1.92092,0.00031,402.287,0.027,0.1346,0.0016,139.996,45.001,31627.55409,1.92346,402.940,33.482,45.070,45.000,0.00,0.09,-272.75,-272.80,-5,520,-945,19.2,4.7,-22.2,19.4,4.7,-21.9,5.73,2.00,-15.5,25.8
2015-11-27 01:30:00,0.0,1.92131,0.00031,402.339,0.039,0.1346,0.0014,139.997,45.000,31626.07723,1.92387,402.991,33.498,45.070,45.000,0.00,0.08,-272.75,-272.81,-6,520,-945,19.2,4.7,-22.1,19.4,4.7,-21.9,5.73,2.15,-15.4,25.7
2015-11-27 01:31:00,0.0,1.92129,0.00037,402.354,0.036,0.1339,0.0017,139.997,45.000,31628.11647,1.92383,403.004,33.507,45.070,45.000,0.00,0.08,-272.75,-272.81,-6,520,-945,19.2,4.7,-22.2,19.4,4.7,-21.9,5.73,2.03,-15.4,25.7
2015-11-27 01:32:00,0.0,1.92112,0.00031,402.344,0.037,0.1342,0.0019,140.000,45.000,31631.95949,1.92365,402.995,33.543,45.070,45.000,0.00,0.09,-272.75,-272.80,-6,520,-945,19.2,4.7,-22.2,19.4,4.7,-21.9,5.73,1.84,-15.5,25.7
2015-11-27 01:33:00,0.0,1.92152,0.00040,402.402,0.027,0.1336,0.0016,139.998,45.000,31628.79252,1.92406,403.050,33.560,45.070,45.000,0.00,0.09,-272.75,-272.80,-5,520,-945,19.2,4.6,-22.3,19.4,4.7,-22.0,5.73,1.91,-15.5,25.8
2015-11-27 01:34:00,0.0,1.92155,0.00030,402.423,0.036,0.1338,0.0013,139.999,45.000,31630.46611,1.92407,403.072,33.562,45.070,45.000,0.00,0.09,-272.76,-272.81,-5,520,-945,19.2,4.6,-22.3,19.4,4.7,-22.0,5.73,2.12,-15.4,25.8
2015-11-27 01:35:00,0.0,1.92166,0.00025,402.424,0.029,0.1344,0.0016,139.997,45.000,31631.39262,1.92420,403.076,33.563,45.069,45.000,0.00,0.08,-272.74,-272.80,-6,520,-945,19.2,4.6,-22.2,19.4,4.7,-21.9,5.73,2.10,-15.4,25.8
2015-11-27 01:36:00,0.0,1.92140,0.00036,402.396,0.032,0.1343,0.0015,139.998,45.000,31634.03158,1.92397,403.048,33.579,45.069,45.000,0.00,0.08,-272.74,-272.80,-6,520,-945,19.2,4.6,-22.2,19.4,4.7,-21.9,5.73,1.89,-15.3,25.8
2015-11-27 01:37:00,0.0,1.92143,0.00041,402.408,0.030,0.1345,0.0017,139.999,45.000,31635.46477,1.92397,403.060,33.600,45.069,45.000,0.00,0.08,-272.74,-272.80,-6,520,-945,19.2,4.6,-22.2,19.4,4.7,-21.9,5.73,1.85,-15.4,25.8
2015-11-27 01:38:00,0.0,1.92150,0.00028,402.433,0.029,0.1338,0.0020,139.996,45.001,31635.35021,1.92404,403.082,33.625,45.069,45.000,0.00,0.08,-272.75,-272.80,-6,520,-945,19.2,4.6,-22.2,19.4,4.7,-21.9,5.73,2.05,-15.3,25.8
2015-11-27 01:39:00,0.0,1.92145,0.00038,402.442,0.027,0.1349,0.0016,140.000,45.001,31638.62425,1.92399,403.098,33.628,45.069,45.000,0.00,0.08,-272.74,-272.80,-5,520,-945,19.2,4.6,-22.2,19.5,4.7,-21.9,5.73,2.14,-15.4,25.8
2015-11-27 01:40:00,0.0,1.92170,0.00027,402.457,0.040,0.1339,0.0022,139.998,45.000,31638.14661,1.92426,403.106,33.640,45.069,45.000,0.00,0.08,-272.75,-272.81,-5,520,-945,19.2,4.6,-22.2,19.5,4.7,-21.9,5.73,1.99,-15.3,25.7
2015-11-27 01:41:00,0.0,1.92139,0.00042,402.463,0.030,0.1339,0.0018,140.000,45.000,31640.61983,1.92394,403.114,33.685,45.069,45.000,0.00,0.09,-272.74,-272.81,-5,520,-945,19.3,4.6,-22.2,19.5,4.7,-21.9,5.73,1.84,-15.4,25.8
2015-11-27 01:42:00,0.0,1.92165,0.00038,402.462,0.034,0.1339,0.0013,140.000,45.000,31639.51001,1.92420,403.110,33.688,45.070,45.000,0.00,0.09,-272.74,-272.80,-6,520,-945,19.3,4.6,-22.2,19.5,4.7,-21.9,5.73,1.94,-15.3,25.8
2015-11-27 01:43:00,0.0,1.92152,0.00029,402.465,0.032,0.1332,0.0017,139.999,45.000,31638.25369,1.92400,403.111,33.680,45.069,45.000,0.00,0.09,-272.75,-272.80,-6,520,-945,19.3,4.6,-22.2,19.5,4.7,-22.0,5.73,2.13,-15.3,25.8
2015-11-27 01:44:00,0.0,1.92168,0.00033,402.503,0.041,0.1335,0.0015,139.999,45.000,31638.04466,1.92421,403.149,33.688,45.070,45.000,0.00,0.08,-272.75,-272.81,-6,520,-945,19.2,4.6,-22.2,19.5,4.7,-22.0,5.73,2.08,-15.4,25.8
2015-11-27 01:45:00,0.0,1.92171,0.00043,402.504,0.028,0.1338,0.0018,139.998,45.000,31636.49536,1.92423,403.154,33.687,45.070,45.000,0.00,0.08,-272.74,-272.80,-5,520,-945,19.3,4.6,-22.2,19.5,4.7,-22.0,5.73,1.87,-15.3,25.8